Date,TemperatureHighF,TemperatureAvgF,TemperatureLowF,DewpointHighF,DewpointAvgF,DewpointLowF,HumidityHigh,HumidityAvg,HumidityLow,PressureMaxIn,PressureMinIn,WindSpeedMaxMPH,WindSpeedAvgMPH,GustSpeedMaxMPH,PrecipitationSumIn
2013-1-1,31.3,16.4,6.5,15.0,9.5,0.9,84,75,49,30.76,30.57,10,3,10,0.03
2013-1-2,16.5,10.3,2.0,11.6,5.2,-4.1,83,80,75,30.75,30.62,8,2,8,0.00
2013-1-3,30.4,16.3,0.5,13.9,5.9,-5.8,82,65,41,30.62,30.40,12,3,12,0.01
2013-1-4,39.2,24.8,14.0,19.8,13.0,6.6,74,61,43,30.56,30.36,12,4,12,0.01
2013-1-5,29.5,25.0,20.0,22.2,16.1,10.2,79,69,53,30.40,30.28,9,3,9,0.00
2013-1-6,41.5,30.4,21.3,25.6,21.4,16.2,83,70,52,30.32,30.15,8,3,8,0.00
2013-1-7,47.3,42.0,30.3,34.5,30.3,21.7,72,63,53,30.16,30.04,30,15,30,0.01
2013-1-8,49.1,44.1,40.1,35.6,32.1,28.2,71,63,54,30.16,29.98,32,16,32,0.00
2013-1-9,48.5,38.0,25.6,33.1,26.0,17.7,76,62,47,29.98,29.72,36,12,36,0.02
2013-1-10,32.4,26.0,21.8,22.4,16.8,13.9,83,68,51,30.10,29.93,21,6,21,0.04
2013-1-11,27.9,21.1,12.4,14.6,10.6,5.9,75,64,47,30.40,30.08,17,6,17,0.00
2013-1-12,27.0,14.1,2.8,8.0,3.7,-2.8,79,64,36,30.53,30.36,7,2,7,0.00
2013-1-13,29.3,15.5,4.5,6.7,1.8,-2.1,77,57,28,30.62,30.47,6,2,6,0.00
2013-1-14,38.8,23.0,7.2,20.8,7.9,-1.8,74,55,29,30.65,30.47,8,2,8,0.00
2013-1-15,48.5,29.0,13.5,22.1,16.3,8.8,83,62,34,30.75,30.52,7,2,7,0.00
2013-1-16,53.1,32.6,17.0,20.1,15.1,8.9,72,52,24,30.75,30.53,7,2,7,0.00
2013-1-17,49.1,33.6,23.6,20.3,15.5,11.2,64,49,28,30.62,30.39,12,4,12,0.00
2013-1-18,49.9,32.2,21.0,20.4,14.8,9.9,62,50,30,30.51,30.34,10,4,10,0.00
2013-1-19,53.9,33.8,18.6,20.6,15.7,10.1,69,50,26,30.54,30.35,9,2,9,0.00
2013-1-20,49.8,33.0,22.7,16.9,13.4,9.9,69,47,24,30.54,30.36,12,3,12,0.00
2013-1-21,50.5,32.6,20.5,18.0,12.3,7.4,62,45,23,30.44,30.19,10,4,10,0.00
2013-1-22,48.9,31.7,21.9,21.6,14.9,9.9,70,52,26,30.30,30.06,10,3,10,0.00
2013-1-23,55.3,40.4,31.0,33.4,23.5,15.5,81,53,27,30.09,29.85,21,5,21,0.00
2013-1-24,51.9,42.8,33.1,35.6,32.0,29.8,89,67,45,30.20,30.06,24,6,24,0.00
2013-1-25,46.8,42.3,38.2,38.4,35.1,33.3,87,76,61,30.09,29.90,26,5,26,0.04
2013-1-26,42.2,34.7,28.7,33.8,23.2,18.7,87,63,41,30.05,29.90,20,5,20,0.01
2013-1-27,37.6,31.6,25.0,23.4,19.8,13.9,78,63,39,30.15,30.03,18,6,18,0.00
2013-1-28,37.6,34.6,31.2,25.4,22.9,20.0,70,62,53,30.16,30.03,25,7,25,0.00
2013-1-29,46.2,39.9,36.8,30.4,26.9,24.0,67,60,53,30.39,30.11,26,8,26,0.00
2013-1-30,48.3,40.4,34.3,32.4,28.7,23.3,80,63,53,30.44,30.36,16,5,16,0.00
2013-1-31,49.8,38.1,28.8,30.9,28.0,24.6,86,68,44,30.42,30.26,12,3,12,0.00
2013-2-1,50.8,36.2,25.7,30.7,26.1,21.8,86,69,38,30.45,30.29,8,2,8,0.00
2013-2-2,50.5,35.4,23.5,31.0,26.1,19.1,86,71,45,30.51,30.28,7,2,7,0.00
2013-2-3,54.8,40.8,24.1,29.0,23.0,19.0,85,54,26,30.35,30.10,16,3,16,0.01
2013-2-4,52.2,42.1,32.1,27.1,23.7,19.0,72,50,27,30.17,29.92,12,2,12,0.00
2013-2-5,46.4,40.7,32.7,29.1,21.1,13.1,73,47,30,30.06,29.87,36,6,36,0.00
2013-2-6,47.9,39.3,33.2,25.0,21.9,18.2,70,51,32,30.14,29.88,13,0,13,0.00
2013-2-7,39.8,33.9,27.0,27.0,21.5,16.6,78,61,41,30.11,29.86,0,0,0,0.00
2013-2-8,38.0,30.0,23.0,22.2,18.6,13.6,85,64,37,30.23,30.10,16,2,16,0.00
2013-2-9,42.2,30.1,19.7,25.7,20.2,13.4,82,67,51,30.27,30.17,7,0,2,0.00
2013-2-10,44.1,33.3,24.5,25.7,20.4,16.4,86,62,34,30.36,30.22,10,0,10,0.00
2013-2-11,48.3,35.1,23.0,29.0,21.7,14.8,78,60,28,30.34,30.21,13,1,13,0.00
2013-2-12,48.0,37.0,28.2,29.3,25.3,21.5,83,64,38,30.47,30.33,13,1,13,0.00
2013-2-13,46.7,36.8,29.3,30.9,27.0,23.7,83,68,50,30.47,30.36,2,0,2,0.00
2013-2-14,52.2,38.6,26.4,33.1,28.7,22.4,86,69,45,30.57,30.44,0,0,0,0.00
2013-2-15,58.7,40.3,26.1,33.3,29.1,22.5,88,68,34,30.53,30.23,0,0,0,0.01
2013-2-16,53.8,40.9,28.1,31.1,23.6,18.4,78,52,28,30.23,30.08,16,2,16,0.00
2013-2-17,44.1,31.6,19.9,20.8,17.0,10.9,80,58,26,30.29,30.08,2,0,0,0.00
2013-2-18,41.5,31.2,22.5,21.9,18.3,12.1,77,60,30,30.09,29.75,1,0,1,0.00
2013-2-19,40.5,29.9,20.3,27.5,19.0,13.9,83,65,40,29.98,29.73,13,1,13,0.00
2013-2-20,41.3,31.4,23.2,23.0,19.2,15.4,81,62,35,30.11,29.97,12,0,12,0.01
2013-2-21,39.3,32.7,24.7,22.8,20.8,17.0,80,62,40,30.19,30.06,12,1,12,0.00
2013-2-22,44.6,36.3,27.6,31.9,25.6,20.6,86,65,47,30.16,29.86,26,5,26,0.01
2013-2-23,36.9,29.3,22.4,21.9,18.3,14.6,80,64,42,30.43,30.01,28,2,28,0.02
2013-2-24,46.5,33.4,18.0,27.7,19.5,12.3,78,58,35,30.49,30.08,2,0,2,0.00
2013-2-25,40.9,35.2,24.7,30.4,19.5,8.3,79,54,27,30.36,29.99,21,4,21,0.00
2013-2-26,48.8,35.1,20.8,18.7,13.5,1.2,74,45,16,30.45,30.22,1,0,1,0.00
2013-2-27,47.6,39.9,28.7,28.6,20.8,12.7,56,46,36,30.34,30.23,12,0,12,0.00
2013-2-28,54.8,46.1,39.2,37.3,34.2,25.9,73,63,51,30.43,30.22,12,2,12,0.00
2013-3-1,62.1,49.7,41.5,34.2,29.9,23.4,72,49,23,30.45,30.23,5,0,5,0.00
2013-3-2,56.5,46.5,39.2,32.4,29.2,23.0,67,52,30,30.24,30.04,10,0,10,0.00
2013-3-3,42.3,35.0,24.5,29.9,15.3,-5.5,74,49,13,30.27,30.03,13,1,13,0.00
2013-3-4,45.7,25.7,15.1,16.1,12.4,8.9,81,61,24,30.31,30.14,12,0,12,0.00
2013-3-22,37.6,30.2,23.0,17.3,14.6,7.8,73,53,31,30.39,30.25,22,5,22,0.00
2013-3-23,44.2,32.0,22.4,16.9,14.7,10.2,73,52,25,30.41,30.22,2,0,2,0.00
2013-3-24,46.7,34.9,22.4,23.6,18.7,14.2,72,53,33,30.31,30.11,4,0,4,0.00
2013-3-25,50.4,40.3,29.1,27.6,24.3,21.8,74,54,36,30.11,29.91,12,0,12,0.00
2013-3-26,48.8,41.9,35.8,36.7,31.9,25.9,81,68,53,29.99,29.89,1,0,1,0.00
2013-3-27,55.6,42.9,30.7,41.2,34.8,27.8,89,75,42,29.96,29.84,4,0,4,0.17
2013-3-28,55.9,45.2,38.5,42.3,39.1,35.8,91,80,49,30.08,29.94,4,0,4,0.23
2013-3-29,61.6,48.9,37.3,41.2,38.4,34.4,89,70,38,30.20,30.06,6,0,0,0.00
2013-3-30,68.8,51.9,34.1,41.0,37.1,30.9,89,61,28,30.21,29.95,13,1,13,0.00
2013-3-31,64.3,51.5,36.8,41.9,36.0,31.8,83,58,34,29.99,29.83,12,1,12,0.00
2013-4-1,60.9,50.1,40.3,41.1,38.3,35.2,87,66,43,30.08,29.85,14,2,14,0.00
2013-4-2,63.1,48.4,35.5,38.3,35.1,31.5,88,63,33,30.17,30.01,12,1,12,0.00
2013-4-3,66.4,50.9,34.1,37.0,30.7,23.2,86,52,20,30.15,29.85,2,0,2,0.00
2013-4-4,62.6,51.9,44.6,41.7,35.5,32.0,71,54,34,29.84,29.63,21,2,21,0.00
2013-4-5,54.8,46.2,41.1,37.5,34.1,29.5,77,63,38,29.93,29.82,21,1,21,0.01
2013-4-6,52.3,44.9,39.9,36.3,32.6,26.3,78,63,38,29.94,29.75,25,3,25,0.01
2013-4-7,46.5,41.3,32.8,34.4,27.4,19.5,73,58,37,29.85,29.58,29,7,29,0.03
2013-4-8,45.4,36.7,27.6,25.3,22.9,20.0,74,58,43,30.25,29.85,21,3,21,0.00
2013-4-9,56.6,42.1,26.0,33.2,24.3,10.4,80,54,16,30.36,30.20,12,0,12,0.00
2013-4-10,58.9,48.0,34.9,40.8,33.8,27.3,77,59,35,30.20,30.02,34,6,34,0.00
2013-4-11,53.2,39.6,25.7,28.5,23.9,17.5,85,57,28,30.27,30.09,12,1,12,0.00
2013-4-12,62.0,37.8,26.3,26.1,21.1,10.5,77,58,14,30.13,29.81,12,0,12,0.00
2013-4-13,46.1,39.4,31.2,32.5,20.8,9.5,64,48,24,30.05,29.65,18,3,29,0.00
2013-4-14,41.2,33.4,25.4,25.6,19.4,15.2,85,57,38,30.07,29.86,14,0,14,0.00
2013-4-15,40.2,31.7,27.5,29.0,26.6,21.1,88,82,50,30.15,29.88,21,2,21,0.02
2013-4-16,39.2,31.9,28.4,28.2,25.9,22.2,87,79,53,30.28,30.13,16,2,17,0.09
2013-8-7,76.7,70.1,66.0,41.2,38.2,35.4,40,31,25,29.84,29.79,14,2,14,0.00
2013-8-8,82.0,70.4,55.7,46.1,40.0,32.9,60,36,17,29.87,29.70,4,0,4,0.00
2013-8-9,82.0,67.3,55.7,53.0,44.8,38.5,74,47,22,29.84,29.63,10,0,10,0.07
2013-8-10,75.1,60.7,48.5,49.6,45.6,41.8,81,60,31,29.96,29.79,16,0,16,0.00
2013-8-11,75.4,63.6,49.8,48.6,43.3,37.4,74,51,26,29.98,29.81,12,1,12,0.00
2013-8-12,81.1,65.2,50.8,58.8,47.0,37.6,80,55,22,29.93,29.78,12,0,12,0.13
2013-8-13,86.1,69.2,52.5,48.7,43.7,34.3,73,45,16,29.96,29.74,16,0,16,0.00
2013-8-14,86.7,71.4,56.2,49.3,43.5,34.7,61,40,17,29.83,29.67,16,1,16,0.00
2013-8-15,87.4,69.9,52.3,50.6,44.9,35.4,73,45,16,29.86,29.67,20,1,20,0.00
2013-8-16,82.6,69.2,55.4,60.1,50.6,44.5,75,54,27,29.88,29.77,17,0,17,0.01
2013-8-17,82.4,68.6,55.4,53.4,48.8,44.4,80,53,28,29.94,29.78,17,2,17,0.00
2013-8-18,85.3,69.1,51.6,51.0,45.0,33.2,82,48,18,30.00,29.82,14,0,14,0.00
2013-8-19,86.3,70.0,53.2,50.8,44.3,35.0,74,44,18,29.95,29.77,20,1,20,0.00
2013-8-20,82.4,67.1,48.6,46.3,33.0,10.7,77,37,7,29.98,29.79,14,0,14,0.00
2013-8-21,81.8,68.8,54.5,42.6,32.5,26.7,44,28,15,29.90,29.75,5,0,4,0.00
2013-8-22,81.8,65.2,58.4,54.5,43.5,31.8,72,48,26,29.84,29.72,16,0,16,0.02
2013-8-23,79.8,65.2,51.4,54.6,45.9,39.3,84,54,26,29.85,29.64,16,1,16,0.18
2013-8-24,76.3,61.1,48.2,54.0,48.4,39.4,89,67,27,29.79,29.62,12,0,12,0.11
2013-8-25,70.9,57.9,52.0,55.2,50.0,47.9,88,77,45,29.83,29.69,14,0,14,0.08
2013-8-31,89.0,77.1,66.8,48.1,45.9,40.7,47,34,19,29.72,29.67,1,0,14,0.10
2013-9-1,83.6,63.8,54.5,48.2,44.2,35.3,66,52,18,29.75,29.64,0,0,0,0.00
2013-9-2,84.1,72.0,57.5,51.1,45.3,31.0,73,43,16,29.76,29.60,17,2,17,0.00
2013-9-3,82.2,64.1,49.8,50.4,44.8,27.2,84,56,14,29.87,29.71,17,1,17,0.00
2013-9-4,82.4,63.8,49.5,48.9,43.6,31.4,82,54,16,29.93,29.74,6,0,6,0.00
2013-9-5,72.3,57.7,47.7,49.7,44.0,34.4,84,62,29,29.95,29.75,29,1,29,0.00
2013-9-6,68.9,58.7,51.0,46.2,43.5,39.6,78,58,38,30.07,29.92,16,1,16,0.00
2013-9-7,77.6,60.7,42.1,47.0,43.0,38.3,88,57,26,30.07,29.83,16,1,16,0.00
2013-9-8,73.5,61.9,48.8,49.7,44.2,38.1,80,55,29,29.98,29.88,16,1,16,0.00
2013-9-9,81.1,66.0,48.6,44.0,39.0,27.5,70,42,15,29.97,29.77,12,0,12,0.00
2013-9-10,83.4,68.8,51.1,45.5,40.8,36.0,66,39,19,29.89,29.72,14,0,14,0.00
2013-9-11,86.1,70.4,52.9,48.8,41.8,35.5,66,39,17,29.93,29.77,5,0,5,0.00
2013-9-12,88.0,73.4,57.5,48.0,40.9,33.2,55,34,15,29.88,29.70,5,0,5,0.00
2013-9-13,80.5,70.2,58.3,47.0,40.2,35.9,63,35,22,29.79,29.64,2,0,2,0.00
2013-9-14,87.2,70.8,55.4,49.7,44.2,37.3,70,43,18,29.74,29.54,4,0,3,0.00
2013-9-15,88.0,69.5,55.4,48.5,41.1,18.3,66,41,8,29.68,29.41,10,0,10,0.00
2013-9-16,68.6,58.4,48.8,45.5,42.2,40.3,74,56,38,29.83,29.67,16,0,16,0.00
2013-9-17,57.2,50.8,45.8,48.5,41.4,37.3,81,71,55,29.92,29.72,20,1,20,0.07
2013-9-18,64.7,51.8,42.8,39.6,33.9,25.4,78,54,23,30.06,29.92,0,0,0,0.00
2013-9-19,79.2,58.0,36.0,36.4,30.1,20.1,78,43,12,30.05,29.69,1,0,1,0.00
2013-9-20,77.0,57.3,39.8,43.5,33.7,19.8,69,46,13,29.71,29.45,17,1,20,0.00
2013-9-21,63.1,52.4,43.8,45.8,38.5,32.4,87,61,34,29.70,29.50,12,0,12,0.12
2013-9-22,59.6,51.5,43.3,45.6,39.0,35.1,82,63,47,29.79,29.65,16,1,16,0.01
2013-9-23,62.0,54.6,48.2,41.4,38.6,34.3,72,55,38,29.90,29.76,16,1,16,0.00
2013-9-24,51.6,47.3,40.5,43.2,38.5,34.2,84,72,54,29.86,29.77,10,0,10,0.11
2013-9-25,50.5,42.7,37.6,37.1,33.4,30.0,84,70,49,29.96,29.77,20,1,20,0.02
2013-9-26,53.2,42.3,31.9,35.3,31.6,27.3,84,67,39,30.14,29.95,10,0,16,0.00
2013-9-27,61.6,47.2,30.4,41.6,32.8,23.0,86,61,25,30.18,29.90,12,0,13,0.00
2013-9-28,64.2,56.9,47.4,46.6,42.2,37.5,84,59,40,29.90,29.51,24,2,24,0.29
2013-9-29,52.3,47.1,42.6,45.7,39.5,35.0,86,75,61,29.71,29.45,18,1,18,0.63
2013-9-30,53.1,46.1,38.9,46.3,33.3,27.2,86,62,45,29.96,29.50,31,2,31,0.11
2013-10-1,51.9,43.3,31.0,36.2,30.9,21.6,80,62,34,30.17,29.93,18,1,18,0.00
2013-10-2,48.6,37.9,26.7,33.5,27.5,21.9,84,67,40,30.20,30.01,16,1,16,0.02
2013-10-3,49.8,39.3,31.2,32.7,29.6,26.9,87,70,44,30.42,30.10,4,0,4,0.01
2013-10-4,58.7,43.1,29.3,33.4,27.5,22.6,83,58,25,30.55,30.36,0,0,0,0.00
2013-10-5,74.9,49.7,30.4,33.9,25.8,16.3,82,47,11,30.41,30.12,0,0,0,0.00
2013-10-6,75.1,55.8,37.5,35.4,26.2,19.4,61,35,13,30.19,29.87,7,0,7,0.00
2013-10-7,54.7,48.6,37.9,38.3,28.6,17.5,73,47,27,30.06,29.84,17,1,17,0.00
2013-10-8,49.5,41.4,33.8,38.0,32.3,28.2,86,71,46,30.09,29.89,5,0,5,0.07
2013-10-9,43.5,38.7,34.0,33.7,32.0,30.3,87,77,64,30.06,29.93,16,1,16,0.04
2013-10-10,56.3,43.0,33.2,33.2,30.3,26.3,81,63,36,30.05,29.88,17,1,17,0.00
2013-10-11,52.9,41.6,28.5,35.0,30.6,24.8,87,67,42,30.15,30.02,5,0,5,0.00
2013-10-12,47.1,40.2,34.4,35.4,31.8,29.1,83,72,54,30.14,30.00,5,0,5,0.00
2013-10-13,49.1,42.9,36.2,36.3,34.4,30.6,86,73,50,30.33,30.12,1,0,0,0.00
2013-10-14,53.5,41.2,30.1,33.4,28.9,25.8,86,64,38,30.41,30.31,5,0,5,0.00
2013-10-15,62.0,43.0,25.4,30.3,25.7,20.1,81,54,22,30.45,30.17,0,0,0,0.00
2013-10-16,62.6,45.6,30.7,28.4,24.3,20.3,69,46,22,30.19,30.03,4,0,4,0.00
2013-10-17,59.9,44.8,31.5,34.6,29.0,25.7,80,57,29,30.27,30.13,4,0,1,0.00
2013-10-18,64.2,45.6,30.0,34.7,30.4,25.2,83,59,27,30.30,30.11,0,0,0,0.00
2013-10-19,74.2,51.0,29.1,32.1,26.5,20.7,81,46,14,30.20,30.00,0,0,0,0.00
2013-10-20,68.9,51.6,37.2,33.2,29.0,25.5,69,45,20,30.17,30.03,0,0,0,0.00
2013-10-21,70.4,51.9,37.0,35.7,31.6,28.5,73,49,22,30.19,30.01,1,0,0,0.00
2013-10-22,70.1,50.9,35.6,37.1,32.8,28.8,78,54,22,30.18,29.96,4,0,1,0.00
2013-10-23,67.6,49.6,34.7,36.6,33.4,29.7,83,57,27,30.11,29.95,6,0,4,0.00
2013-10-24,69.1,49.4,35.0,39.5,35.0,31.2,87,62,27,30.14,29.94,1,0,0,0.00
2013-10-25,71.3,50.7,32.4,36.2,31.5,23.8,84,53,17,30.22,30.06,4,0,4,0.00
2013-10-26,70.6,49.0,35.9,35.9,31.1,25.6,74,54,19,30.29,30.04,4,0,4,0.00
2013-10-27,51.6,40.3,36.0,39.2,33.9,27.8,90,78,41,30.06,29.72,26,2,26,0.14
2013-10-28,40.1,34.2,30.6,37.4,25.8,19.1,90,72,56,29.99,29.72,22,7,22,0.02
2013-10-29,46.0,34.4,25.0,22.1,18.8,15.9,70,54,35,30.10,29.97,0,0,0,0.00
2013-10-30,55.9,39.4,22.5,31.2,24.4,18.5,86,59,28,30.21,30.06,0,0,0,0.00
2013-10-31,61.5,48.2,35.9,43.3,37.4,28.4,80,67,48,30.21,30.07,10,0,10,0.00
2013-11-1,60.2,46.0,34.7,41.1,37.1,31.7,89,73,46,30.27,29.91,1,0,0,0.00
2013-11-2,51.1,42.7,31.9,39.9,30.4,21.9,80,62,37,30.06,29.68,28,4,28,0.00
2013-11-3,41.8,36.2,29.8,26.8,24.3,19.5,77,62,41,30.13,30.01,17,0,17,0.00
2013-11-4,46.2,39.5,35.0,29.1,26.8,23.7,70,61,41,30.17,30.07,17,0,17,0.00
2013-11-5,51.1,45.4,37.0,39.3,35.8,27.7,81,69,60,30.20,30.07,14,1,14,0.02
2013-11-6,57.3,47.4,36.5,43.0,39.6,33.0,89,75,55,30.29,30.05,7,0,7,0.00
2013-11-7,55.7,44.9,34.7,42.2,34.6,24.4,85,67,47,30.09,29.83,26,2,26,0.06
2013-11-8,44.8,38.9,30.9,29.4,27.3,25.5,80,63,47,30.19,30.09,5,0,2,0.00
2013-11-9,52.8,38.4,26.0,34.3,28.6,21.6,84,69,41,30.16,30.05,0,0,0,0.00
2013-11-10,65.3,46.3,35.3,38.2,33.3,25.4,86,65,22,30.14,29.98,2,0,2,0.00
2013-11-11,40.6,36.9,31.0,35.6,33.1,27.6,91,86,78,30.34,30.11,0,0,0,0.01
2013-11-12,59.3,46.5,35.6,43.6,37.0,32.2,88,71,41,30.35,30.23,10,0,10,0.00
2013-11-13,56.9,42.2,30.4,39.7,30.3,20.4,90,67,26,30.47,30.25,0,0,0,0.01
2013-11-14,46.6,35.0,26.6,27.5,23.2,18.5,79,63,40,30.25,30.07,13,0,13,0.00
2013-11-15,42.6,34.2,24.8,26.5,22.6,19.2,82,64,44,30.08,29.52,16,1,16,0.00
2013-11-16,43.6,40.3,36.5,28.0,25.9,20.5,67,57,41,29.82,29.46,32,3,32,0.00
2013-11-17,47.0,40.9,36.0,29.4,26.8,25.1,66,57,46,30.00,29.82,14,1,14,0.00
2013-11-18,50.8,43.8,34.9,34.4,28.8,23.2,71,56,42,30.00,29.74,28,1,28,0.00
2013-11-19,50.5,45.5,41.2,40.7,35.7,32.8,75,69,59,29.78,29.72,20,1,20,0.01
2013-11-20,42.8,29.6,18.4,36.4,15.7,-4.7,87,58,35,30.48,29.78,17,2,17,0.01
2013-11-21,31.0,19.9,10.4,1.1,-2.7,-6.0,60,38,23,30.81,30.48,4,0,4,0.00
2013-11-22,34.7,19.7,4.8,8.0,3.9,-2.8,72,52,28,30.88,30.69,0,0,0,0.00
2013-11-23,37.5,21.5,9.5,12.5,8.4,3.1,75,59,34,30.72,30.42,0,0,0,0.00
2013-11-24,56.0,32.0,13.5,16.7,12.1,6.5,77,49,15,30.45,30.24,0,0,0,0.00
2013-11-25,53.1,32.3,20.5,17.9,15.0,11.8,71,52,21,30.50,30.33,0,0,0,0.00
2013-11-26,50.7,32.8,21.0,19.9,16.5,13.2,73,54,25,30.42,30.17,0,0,0,0.00
2013-11-27,44.2,31.9,24.4,22.8,19.7,15.8,76,61,41,30.21,30.07,0,0,0,0.00
2013-11-28,53.8,32.9,19.1,24.0,19.9,14.5,84,62,28,30.29,30.11,0,0,0,0.00
2013-11-29,56.3,40.9,24.8,26.3,21.4,17.8,78,49,25,30.37,30.20,0,0,0,0.00
2013-11-30,56.5,45.4,37.2,34.6,31.8,24.9,78,60,41,30.35,30.19,4,0,4,0.00
2013-12-1,57.2,51.4,46.7,40.4,35.7,31.2,70,55,43,30.18,29.78,112,6,112,0.00
2013-12-2,50.1,36.4,24.8,35.2,26.7,16.0,82,68,51,30.00,29.74,0,0,0,0.08
2013-12-3,26.1,20.7,14.0,20.1,11.9,3.8,82,69,53,30.33,29.99,0,0,0,0.00
2013-12-4,19.1,11.9,3.4,3.6,-0.3,-4.1,71,58,42,30.49,30.34,0,0,0,0.00
2013-12-5,22.9,10.0,-4.3,5.5,-1.0,-11.3,73,62,39,30.50,30.28,0,0,0,0.00
2013-12-6,11.1,8.9,7.7,4.4,3.2,2.0,80,77,73,30.29,30.14,0,0,0,0.00
2013-12-7,7.7,0.6,-14.3,2.0,-6.8,-23.4,77,70,62,30.68,30.18,0,0,0,0.00
2013-12-8,17.5,-1.2,-17.8,7.2,-9.3,-26.3,78,68,61,30.84,30.62,0,0,0,0.02
2013-12-9,28.7,12.0,-4.6,15.4,2.7,-12.2,77,66,54,30.82,30.59,0,0,0,0.03
2013-12-10,37.9,23.2,7.2,22.3,14.5,1.5,82,70,52,30.60,30.46,0,0,0,0.01
2013-12-11,40.3,25.1,11.2,21.9,15.5,6.2,83,68,46,30.55,30.36,0,0,0,0.01
2013-12-12,43.8,32.9,19.5,28.2,18.7,11.3,71,57,38,30.39,30.17,0,0,0,0.00
2013-12-13,47.3,35.6,24.7,29.8,26.0,18.9,83,69,49,30.52,30.19,0,0,0,0.00
2013-12-14,44.2,34.2,23.8,28.4,24.4,18.6,83,68,49,30.58,30.43,0,0,0,0.00
2013-12-15,58.4,42.0,34.0,32.6,25.4,13.6,84,56,20,30.48,30.30,0,0,0,0.00
2013-12-16,53.9,37.1,25.7,27.3,22.1,17.9,80,57,28,30.53,30.34,0,0,0,0.00
2013-12-17,55.7,40.5,31.9,25.4,22.1,17.8,68,49,29,30.34,30.08,0,0,0,0.00
2013-12-18,41.1,34.7,29.4,30.0,25.5,22.1,87,70,55,30.10,29.94,0,0,0,0.00
2013-12-19,30.6,24.1,15.7,24.7,11.4,2.8,81,59,40,30.33,30.02,0,0,0,0.00
2013-12-20,46.8,31.4,17.7,35.8,21.7,3.0,81,68,48,30.24,29.86,0,0,0,0.06
2013-12-21,49.8,42.1,35.5,32.3,29.4,26.5,78,61,41,30.19,29.83,0,0,0,0.00
2013-12-22,54.1,42.4,33.5,35.6,30.3,26.4,77,64,38,30.35,30.14,0,0,0,0.00
2013-12-23,53.5,43.7,33.1,38.0,30.2,22.2,77,60,36,30.44,30.20,0,0,0,0.00
2013-12-24,46.7,34.2,26.0,28.3,23.8,16.7,85,67,39,30.60,30.44,0,0,0,0.00
2013-12-25,47.7,35.0,23.9,26.7,21.6,15.1,71,59,32,30.58,30.40,0,0,0,0.00
2013-12-26,55.1,38.8,26.0,27.4,22.6,18.8,77,54,28,30.46,30.25,0,0,0,0.00
2013-12-27,48.8,36.9,29.7,24.6,21.0,17.8,63,53,37,30.33,30.17,0,0,0,0.00
2013-12-28,46.4,33.7,25.4,21.7,17.0,12.3,70,53,26,30.53,30.30,0,0,0,0.00
2013-12-29,45.8,31.7,20.6,24.6,15.6,10.0,69,53,27,30.52,30.32,0,0,0,0.00
2013-12-30,47.9,39.1,30.7,25.0,21.1,14.4,70,50,26,30.33,30.19,0,0,0,0.00
2013-12-31,51.0,40.5,34.0,25.6,21.9,16.3,60,48,26,30.34,30.21,0,0,0,0.00
2014-1-1,51.7,36.5,26.7,30.7,25.9,20.9,84,67,43,30.44,30.28,0,0,0,0.00
2014-1-2,56.0,42.5,26.6,31.5,26.0,21.6,84,56,31,30.37,29.98,0,0,0,0.00